Weather History for Ithaca, NY

Change the Weather History Date:

Friday, November 11, 2011

  Actual Average Record
Temperature  
Mean Temperature 36 °F -  
Max Temperature 41 °F 48 °F 69 °F (1996)
Min Temperature 32 °F 32 °F 15 °F (1961)
Degree Days  
Heating Degree Days 28    
Moisture  
Dew Point 28 °F    
Average Humidity 75    
Maximum Humidity 87    
Minimum Humidity 58    
Precipitation  
Precipitation 0.00 in - - ()
Sea Level Pressure  
Sea Level Pressure 29.80 in    
Wind  
Wind Speed 10 mph (West)    
Max Wind Speed 23 mph    
Max Gust Speed 29 mph    
Visibility 10 miles    
Events      
Averages and records for this station are not official NWS values.
T = Trace of Precipitation, MM = Missing Value Source: NWS Daily Summary

Daily Weather History Graph

Daily Weather History Graph

Search for Another Location

Airport:

Trip Planner

Search our weather history database for the weather conditions in past years. The results will help you decide how hot, cold, wet, or windy it might be!

Date:

Astronomy

Nov. 11, 2011 Rise Set
Actual Time 6:51 AM EST 4:47 PM EST
Civil Twilight 6:21 AM EST 5:17 PM EST
Nautical Twilight 5:47 AM EST 5:51 PM EST
Astronomical Twilight 5:14 AM EST 6:24 PM EST
Moon 5:12 PM EST (11/11) 7:39 AM EST (11/11)
Length of Visible Light 10h 55m
Length of Day
9h 56m
Full, 99% of the Moon is Illuminated
Nov 11
Full
Nov 18
Last Quarter
Nov 25
New
Dec 2
First Quarter
Dec 10
Full

Hourly Weather History & Observations

Time (EST) Temp. Windchill Dew Point Humidity Pressure Visibility Wind Dir Wind Speed Gust Speed Precip Events Conditions
12:56 AM 36.0 °F 29.0 °F 30.0 °F 79% 29.75 in 10.0 mi WNW 9.2 mph - N/A   Mostly Cloudy
1:56 AM 34.9 °F 29.0 °F 29.1 °F 79% 29.74 in 10.0 mi WNW 6.9 mph - N/A   Partly Cloudy
2:56 AM 34.9 °F 29.0 °F 29.1 °F 79% 29.73 in 10.0 mi West 6.9 mph - N/A   Mostly Cloudy
3:56 AM 34.9 °F 28.3 °F 29.1 °F 79% 29.72 in 10.0 mi West 8.1 mph - N/A   Mostly Cloudy
4:56 AM 32.0 °F 24.8 °F 28.0 °F 85% 29.72 in 10.0 mi West 8.1 mph - N/A   Clear
5:45 AM 32.0 °F 24.2 °F 28.4 °F 87% 29.70 in 10.0 mi West 9.2 mph - N/A   Mostly Cloudy
5:56 AM 32.0 °F 23.6 °F 28.0 °F 85% 29.73 in 10.0 mi West 10.4 mph - N/A   Mostly Cloudy
6:22 AM 32.0 °F 23.6 °F 26.6 °F 80% 29.71 in 10.0 mi West 10.4 mph - N/A   Mostly Cloudy
6:29 AM 32.0 °F 24.2 °F 28.4 °F 87% 29.71 in 10.0 mi West 9.2 mph - N/A   Mostly Cloudy
7:56 AM 34.0 °F 26.0 °F 28.0 °F 79% 29.75 in 10.0 mi West 10.4 mph - N/A   Partly Cloudy
9:56 AM 36.9 °F 27.8 °F 27.1 °F 68% 29.75 in 10.0 mi West 15.0 mph 23.0 mph N/A   Mostly Cloudy
10:56 AM 38.8 °F 32.6 °F 27.1 °F 63% 29.75 in 10.0 mi West 9.2 mph - N/A   Mostly Cloudy
11:56 AM 39.9 °F 31.8 °F 27.1 °F 60% 29.73 in 10.0 mi West 15.0 mph - N/A   Mostly Cloudy
12:56 PM 41.0 °F 31.9 °F 28.0 °F 60% 29.74 in 10.0 mi WNW 19.6 mph 26.5 mph N/A   Mostly Cloudy
1:56 PM 39.9 °F 30.2 °F 26.1 °F 58% 29.76 in 10.0 mi West 20.7 mph 26.5 mph N/A   Mostly Cloudy
2:56 PM 39.9 °F 29.7 °F 26.1 °F 58% 29.78 in 10.0 mi WNW 23.0 mph 28.8 mph N/A   Mostly Cloudy
3:56 PM 38.8 °F 29.7 °F 27.1 °F 63% 29.82 in 10.0 mi West 17.3 mph 24.2 mph N/A   Mostly Cloudy
5:56 PM 36.0 °F 28.0 °F 28.0 °F 73% 29.89 in 10.0 mi West 11.5 mph - 0.00 in   Mostly Cloudy
6:56 PM 36.0 °F 29.0 °F 29.1 °F 76% 29.91 in 10.0 mi West 9.2 mph - N/A   Overcast
7:56 PM 34.9 °F 27.1 °F 28.0 °F 76% 29.93 in 10.0 mi West 10.4 mph - N/A   Overcast
8:56 PM 34.9 °F 28.3 °F 28.0 °F 76% 29.94 in 10.0 mi West 8.1 mph - N/A   Mostly Cloudy
9:56 PM 34.0 °F 28.8 °F 29.1 °F 82% 29.95 in 10.0 mi WSW 5.8 mph - N/A   Overcast
10:56 PM 34.0 °F 28.0 °F 29.1 °F 82% 29.95 in 10.0 mi WSW 6.9 mph - N/A   Overcast
11:56 PM 34.9 °F 28.3 °F 29.1 °F 79% 29.97 in 10.0 mi SW 8.1 mph - N/A   Overcast